FENGYUN 1C DEB, 31002

Orbit data source: Space-Track

FENGYUN 1C DEB, 31002 is space debris in SSO originally from a launch on Mon, 10 May 1999 UTC launched from the Taiyaun Space Center, China (TSC). Fengyun 1C debris stems from the Chinese weather satellite Fengyun-1C, which was intentionally destroyed by a Chinese anti-satellite missile in 2007. This event dramatically increased the amount of space debris, with thousands of trackable fragments posing hazards to satellites and human spaceflight. The Fengyun 1C debris cloud has become a focal point in discussions about space sustainability and the need for international regulations to prevent the creation of new debris.

Loading next visibility...
Identifier
31002, 1999-025BCU
Orbit
SSO
Country
Flag of CNCN / PRC
Related business
Manufacturer
Unknown
Mission
Spacecraft
Bus & Motor
Unknown
Mass
Unknown
Launch date (UTC)
1999-05-10 (27 years ago)
Launch vehicle
Unknown
Launch site
Taiyaun Space Center, China (TSC)
Object type
Payload
Rocket body
Debris
Shape & HBR
Unknown shape, 0.1 m
Radar Cross Section
Medium (>0.1 m² and <1 m²)

Expand to show TLE details & history
Last TLE update: 1 week ago

TLE from 1 week ago
0 FENGYUN 1C DEB
1 31002U 99025BCU 26152.50763045  .00000360  00000-0  26601-3 0  9994
2 31002  98.8808 164.3833 0097990 234.1944 280.4276 13.99380982979936
Epoch: 2026-06-01T12:10Z
TLE epoch observation values (Epoch: 2026-06-01T12:10:59.270Z)
Latitude
26.17778°
Longitude
-83.97556°
Altitude
886.864 km
Speed
7.417 km/s
True Right ascension
23h 15m 03s
True Declination
26° 02' 39"
Sunlit
Object was in daylight at epoch
Visualization orbit readout
Latitude
Unknown
Longitude
Unknown
Altitude
Unknown
Speed
Unknown
Apparent Right ascension
Unknown
Apparent Declination
Unknown
Sunlit
N/A
Visualization observer readout
Local Sidereal Time
02:41:05
Azimuth
Unknown
Elevation
Unknown
Doppler factor
Unknown
Orbital elements
Apogee altitude
964.385 km
Perigee altitude
821.882 km
Semi-major axis
7,271.271 km
Eccentricity
0.0098
Inclination
98.8808°
RAAN
164.3833°
Arg. of periapsis
234.1944°
True anomaly
279.32088°
Mean anomaly
280.4276°
Eccentric anomaly
279.87448°
Mean motion
3.50048 °/min
Orbital period
102.84 mins
BSTAR
0.00026601
Loading maneuver chart data...
Computing Atmospheric mass density...

Documentation

Showing up to 5 results
|